Regional Weather Roundup
Issued by NWS

Home | Current Version | Previous Version | Text Only | Print | Product List | Glossary On
Versions: 1 2 3 4 5 6 7 8 9 10 11 12 13 14 15 16 17 18 19 20 21 22 23 24 25 26 27 28 29 30 31 32 33 34 35 36 37 38 39 40 41 42 43 44 45 46 47 48 49 50
000
ASUS46 KPQR 101610
RWROR

OREGON REGIONAL WEATHER ROUNDUP
NATIONAL WEATHER SERVICE PORTLAND OR
800 AM PST MON DEC 10 2018

NOTE: "FAIR" INDICATES FEW OR NO CLOUDS BELOW 12,000 FEET WITH
NO SIGNIFICANT WEATHER AND/OR OBSTRUCTIONS TO VISIBILITY.

ORZ001>013-101700-
NORTHWEST OREGON


CITY           SKY/WX    TMP DP  RH WIND       PRES   REMARKS
ASTORIA        CLOUDY    43  43 100 E3        30.26R FOG
TILLAMOOK      FOG       36  36 100 CALM      30.30R VSB 1/2
NEWPORT        CLOUDY    45  45 100 S5        30.32R FOG
PORTLAND       CLOUDY    39  36  89 SE8       30.33R
VANCOUVER WA   CLOUDY    39  36  89 SE3       30.32R
SCAPPOOSE      CLOUDY    40  38  93 CALM      30.32R FOG
HILLSBORO      FOG       39  37  92 CALM      30.31R VSB 1/4
AURORA         FOG       41  41 100 CALM      30.33R VSB 1/4
MCMINNVILLE    FOG       38  38 100 CALM      30.32R VSB 1/4
SALEM          FOG       41  39  93 CALM      30.31R VSB 1/4
CORVALLIS      FOG       34  34 100 CALM      30.32R VSB<1/4
EUGENE         PTCLDY    38  37  97 S3        30.32R FOG
$$

ORZ021-028-101700-
SOUTHWEST OREGON


CITY           SKY/WX    TMP DP  RH WIND       PRES   REMARKS
NORTH BEND     MOCLDY    45  45 100 SE6       30.34R
BROOKINGS      CLEAR     41  41 100 CALM      30.31S FOG
ROSEBURG       LGT RAIN  45  45 100 CALM      30.32F FOG
SEXTON SUMMIT  MOCLDY    35  34  96 CALM      30.25R
GRANTS PASS    FOG       43  43 100 CALM      30.34  VSB 1/2
MEDFORD        LGT RAIN  44  43  96 CALM      30.30S VSB 1
$$

ORZ014>016-041-101700-
COLUMBIA GORGE


CITY           SKY/WX    TMP DP  RH WIND       PRES   REMARKS
TROUTDALE      CLOUDY    38  35  89 E8        30.32R
HOOD RIVER     MIX PCPN  32  30  93 CALM      30.32R
THE DALLES     PTCLDY    28  26  92 CALM      30.33R FOG
$$

ORZ029>031-041-044-049-050-061>064-502-503-505>511-101700-
EASTERN OREGON


CITY           SKY/WX    TMP DP  RH WIND       PRES   REMARKS
MADRAS         CLEAR     23  21  93 N3        30.27  FOG
REDMOND        PTCLDY    29  26  89 CALM      30.24R
BEND           LGT RAIN  34  32  93 SE6       30.24R
PRINEVILLE     CLOUDY    32  30  93 CALM      30.24
KLAMATH FALLS  CLOUDY    33  32  96 CALM      30.25R
LAKEVIEW       CLOUDY    30  30 100 CALM      30.24R
HERMISTON      CLOUDY    28  25  88 S3        30.29S
PENDLETON      CLOUDY    30  28  92 CALM      30.25R FOG
JOHN DAY       CLOUDY    32  31  96 E6        30.23  FOG
MEACHAM        LGT SNOW  32  29  88 CALM      30.19S VSB 3/4
LA GRANDE      CLOUDY    34  29  82 S20       30.25S WCI  23
BAKER CITY     CLOUDY    31  28  89 E3        30.27R
BURNS          CLOUDY    26  24  92 CALM      30.25S
ROME             N/A     29  25  85 CALM      30.24R
ONTARIO        CLOUDY    32  29  88 NE3       30.34S FOG
$$



USA.gov is the U.S. government's official web portal to all federal, state and local government web resources and services.